| time (UTC) | temp F | wind direction | speed knots | gust knots | rain 1hr in | rain 24hr in | rain mn in | humidity % | barometer mb |
| 20260906170035 | 71 | 205 | 2.6 | 8.7 | 0.00 | 0.00 | 0.00 | 95 | 1019.4 |
| 20260906164515 | 71 | 152 | 2.6 | 6.1 | 0.00 | 0.00 | 0.00 | 94 | 1019.2 |
| 20260906163040 | 70 | 182 | 2.6 | 5.2 | 0.00 | 0.00 | 0.00 | 96 | 1019.1 |
| 20260906161502 | 70 | 165 | 0.0 | 4.3 | 0.00 | 0.00 | 0.00 | 99 | 1019.1 |
| 20260906160045 | 68 | 152 | 1.7 | 5.2 | 0.00 | 0.00 | 0.00 | 99 | 1019.2 |
| 20260906154553 | 68 | 137 | 0.9 | 3.5 | 0.00 | 0.00 | 0.00 | 100 | 1019.5 |
| 20260906153118 | 67 | 178 | 1.7 | 6.1 | 0.00 | 0.00 | 0.00 | 100 | 1019.3 |
| 20260906151535 | 67 | 164 | 1.7 | 5.2 | 0.00 | 0.00 | 0.00 | 100 | 1019.4 |
| 20260906150049 | 66 | 120 | 1.7 | 5.2 | 0.00 | 0.00 | 0.00 | 100 | 1019.4 |
| 20260906144603 | 66 | 147 | 1.7 | 7.0 | 0.00 | 0.00 | 0.00 | 100 | 1019.1 |
| 20260906143043 | 66 | 183 | 4.3 | 7.8 | 0.00 | 0.00 | 0.00 | 100 | 1019.0 |
| 20260906141512 | 66 | 164 | 4.3 | 7.8 | 0.00 | 0.00 | 0.00 | 100 | 1019.1 |
| 20260906140037 | 65 | 128 | 0.9 | 4.3 | 0.00 | 0.00 | 0.00 | 100 | 1019.0 |
| 20260906134618 | 65 | 162 | 3.5 | 7.0 | 0.00 | 0.00 | 0.00 | 100 | 1018.7 |
| 20260906133048 | 65 | 160 | 1.7 | 5.2 | 0.00 | 0.00 | 0.00 | 100 | 1018.4 |
| 20260906131549 | 65 | 190 | 3.5 | 8.7 | 0.00 | 0.00 | 0.00 | 100 | 1018.4 |
| 20260906130024 | 66 | 169 | 3.5 | 7.8 | 0.00 | 0.00 | 0.00 | 100 | 1018.2 |
| 20260906124550 | 65 | 152 | 4.3 | 8.7 | 0.00 | 0.00 | 0.00 | 100 | 1017.8 |
| 20260906123038 | 66 | 149 | 2.6 | 8.7 | 0.00 | 0.00 | 0.00 | 100 | 1018.1 |
| 20260906121541 | 66 | 128 | 0.9 | 6.1 | 0.00 | 0.00 | 0.00 | 100 | 1018.2 |
| 20260906120101 | 65 | 178 | 1.7 | 3.5 | 0.00 | 0.00 | 0.00 | 100 | 1018.2 |
| 20260906114523 | 65 | 167 | 0.9 | 4.3 | 0.00 | 0.00 | 0.00 | 100 | 1018.0 |
| 20260906113102 | 66 | 164 | 1.7 | 5.2 | 0.00 | 0.00 | 0.00 | 100 | 1017.9 |
| 20260906111527 | 66 | 143 | 0.0 | 1.7 | 0.00 | 0.00 | 0.00 | 100 | 1017.8 |
| 20260906110053 | 66 | 141 | 0.9 | 3.5 | 0.00 | 0.00 | 0.00 | 100 | 1017.6 |
| 20260906104506 | 66 | 125 | 0.0 | 2.6 | 0.00 | 0.00 | 0.00 | 100 | 1017.1 |
| 20260906103030 | 66 | 122 | 0.9 | 2.6 | 0.00 | 0.00 | 0.00 | 100 | 1017.3 |
| 20260906101518 | 66 | 118 | 0.0 | 3.5 | 0.00 | 0.00 | 0.00 | 100 | 1017.3 |
| 20260906100032 | 67 | 122 | 1.7 | 6.1 | 0.00 | 0.00 | 0.00 | 100 | 1017.0 |
| 20260906094601 | 67 | 116 | 1.7 | 3.5 | 0.00 | 0.00 | 0.00 | 100 | 1016.7 |
| 20260906093033 | 67 | 135 | 1.7 | 5.2 | 0.00 | 0.00 | 0.00 | 100 | 1016.6 |
| 20260906091546 | 68 | 141 | 0.9 | 5.2 | 0.00 | 0.00 | 0.00 | 100 | 1016.4 |
| 20260906090037 | 68 | 136 | 1.7 | 3.5 | 0.00 | 0.00 | 0.00 | 100 | 1016.6 |
| 20260906084612 | 68 | 122 | 0.0 | 5.2 | 0.00 | 0.00 | 0.00 | 100 | 1016.5 |
| 20260906083040 | 69 | 122 | 0.9 | 7.0 | 0.00 | 0.00 | 0.00 | 100 | 1016.4 |
| 20260906081554 | 69 | 122 | 0.9 | 7.8 | 0.00 | 0.00 | 0.00 | 100 | 1016.4 |
| 20260906080013 | 69 | 139 | 2.6 | 7.0 | 0.00 | 0.00 | 0.00 | 100 | 1016.4 |
| 20260906074542 | 69 | 101 | 0.9 | 3.5 | 0.00 | 0.00 | 0.00 | 100 | 1016.4 |
| 20260906073002 | 69 | 133 | 0.9 | 6.1 | 0.00 | 0.00 | 0.00 | 100 | 1016.5 |
| 20260906071530 | 69 | 128 | 2.6 | 7.0 | 0.00 | 0.00 | 0.00 | 100 | 1016.7 |
| 20260906070005 | 69 | 165 | 1.7 | 5.2 | 0.00 | 0.00 | 0.00 | 100 | 1016.6 |
| 20260906064533 | 69 | 110 | 0.9 | 5.2 | 0.00 | 0.00 | 0.00 | 100 | 1017.1 |
| 20260906063056 | 69 | 120 | 2.6 | 6.1 | 0.00 | 0.00 | 0.00 | 100 | 1017.0 |
| 20260906061521 | 70 | 112 | 2.6 | 5.2 | 0.00 | 0.00 | 0.00 | 100 | 1017.2 |
| 20260906060046 | 70 | 122 | 0.9 | 6.1 | 0.00 | 0.00 | 0.00 | 100 | 1017.0 |
| 20260906054525 | 69 | 112 | 0.9 | 5.2 | 0.00 | 0.00 | 0.00 | 100 | 1016.9 |
| 20260906053104 | 70 | 118 | 1.7 | 5.2 | 0.00 | 0.00 | 0.00 | 100 | 1016.8 |
| 20260906051555 | 70 | 89 | 1.7 | 5.2 | 0.00 | 0.00 | 0.00 | 99 | 1016.7 |
| 20260906050017 | 70 | 118 | 0.9 | 3.5 | 0.00 | 0.00 | 0.00 | 99 | 1016.8 |
| 20260906044600 | 70 | 114 | 0.9 | 5.2 | 0.00 | 0.00 | 0.00 | 99 | 1016.7 |
| 20260906043021 | 71 | 149 | 0.0 | 5.2 | 0.00 | 0.00 | 0.00 | 98 | 1016.7 |
| 20260906041547 | 71 | 114 | 0.9 | 5.2 | 0.00 | 0.00 | 0.00 | 98 | 1016.8 |
| 20260906040100 | 72 | 116 | 2.6 | 3.5 | 0.00 | 0.00 | 0.00 | 98 | 1016.8 |
| 20260906034550 | 72 | 114 | 0.0 | 0.9 | 0.00 | 0.00 | 0.00 | 97 | 1016.6 |
| 20260906033015 | 72 | 114 | 0.0 | 3.5 | 0.00 | 0.00 | 0.00 | 97 | 1016.4 |
| 20260906031601 | 72 | 96 | 0.0 | 2.6 | 0.00 | 0.00 | 0.00 | 97 | 1016.5 |
| 20260906030036 | 72 | 96 | 0.0 | 7.0 | 0.00 | 0.00 | 0.00 | 97 | 1015.9 |
| 20260906024603 | 72 | 135 | 0.0 | 0.0 | 0.00 | 0.00 | 0.00 | 97 | 1016.1 |
| 20260906023039 | 72 | 136 | 0.0 | 0.0 | 0.00 | 0.00 | 0.00 | 97 | 1015.9 |
| 20260906021516 | 73 | 136 | 0.0 | 0.0 | 0.00 | 0.00 | 0.00 | 97 | 1015.5 |
| 20260906020105 | 73 | 136 | 0.0 | 0.0 | 0.00 | 0.00 | 0.00 | 97 | 1015.4 |
| 20260906014526 | 73 | 137 | 0.0 | 0.0 | 0.00 | 0.00 | 0.00 | 97 | 1015.2 |
| 20260906013100 | 74 | 136 | 0.0 | 0.0 | 0.00 | 0.00 | 0.00 | 96 | 1015.0 |
| 20260906011523 | 74 | 138 | 0.9 | 3.5 | 0.00 | 0.00 | 0.00 | 96 | 1014.8 |
| 20260906010103 | 74 | 134 | 0.0 | 1.7 | 0.00 | 0.00 | 0.00 | 95 | 1014.6 |
| 20260906004541 | 75 | 129 | 1.7 | 6.1 | 0.00 | 0.00 | 0.00 | 95 | 1014.5 |
| 20260906003002 | 75 | 127 | 1.7 | 6.1 | 0.00 | 0.00 | 0.00 | 94 | 1014.5 |
| 20260906001528 | 76 | 143 | 1.7 | 6.1 | 0.00 | 0.00 | 0.00 | 94 | 1014.3 |
| 20260906000104 | 76 | 135 | 1.7 | 7.0 | 0.00 | 0.00 | 0.00 | 93 | 1014.3 |
| 20260905234516 | 77 | 122 | 1.7 | 6.1 | 0.00 | 0.00 | 0.00 | 91 | 1014.4 |
| 20260905233044 | 77 | 135 | 1.7 | 7.8 | 0.00 | 0.00 | 0.00 | 90 | 1014.3 |
| 20260905231506 | 78 | 124 | 1.7 | 6.1 | 0.00 | 0.00 | 0.00 | 88 | 1014.5 |
| 20260905230028 | 78 | 102 | 3.5 | 10.4 | 0.00 | 0.20 | 0.00 | 88 | 1014.4 |
| 20260905224555 | 78 | 152 | 4.3 | 9.6 | 0.00 | 0.20 | 0.00 | 89 | 1014.1 |
| 20260905223012 | 79 | 145 | 2.6 | 10.4 | 0.00 | 0.20 | 0.00 | 88 | 1014.1 |
| 20260905221539 | 79 | 133 | 4.3 | 12.2 | 0.00 | 0.20 | 0.00 | 89 | 1014.0 |
| 20260905220010 | 78 | 116 | 4.3 | 9.6 | 0.00 | 0.20 | 0.00 | 89 | 1014.1 |
| 20260905214553 | 77 | 134 | 4.3 | 11.3 | 0.00 | 0.20 | 0.00 | 91 | 1014.2 |
| 20260905213027 | 77 | 115 | 3.5 | 9.6 | 0.00 | 0.20 | 0.00 | 92 | 1014.4 |
| 20260905211539 | 77 | 116 | 5.2 | 9.6 | 0.00 | 0.20 | 0.00 | 91 | 1014.5 |
| 20260905210022 | 78 | 124 | 1.7 | 7.0 | 0.00 | 0.20 | 0.00 | 92 | 1014.8 |
| 20260905204559 | 78 | 135 | 3.5 | 7.8 | 0.00 | 0.20 | 0.00 | 92 | 1014.6 |
| 20260905203020 | 78 | 85 | 3.5 | 9.6 | 0.00 | 0.20 | 0.00 | 93 | 1014.6 |
| 20260905201546 | 77 | 95 | 1.7 | 7.0 | 0.00 | 0.20 | 0.00 | 95 | 1014.7 |
| 20260905194503 | 78 | 88 | 2.6 | 8.7 | 0.00 | 0.20 | 0.00 | 93 | 1015.1 |
| 20260905193045 | 78 | 45 | 2.6 | 7.8 | 0.00 | 0.20 | 0.00 | 94 | 1015.0 |
| 20260905191522 | 78 | 75 | 0.9 | 7.0 | 0.00 | 0.20 | 0.00 | 93 | 1015.3 |
| 20260905190047 | 78 | 66 | 3.5 | 7.8 | 0.00 | 0.20 | 0.00 | 93 | 1015.3 |
| 20260905184511 | 78 | 79 | 4.3 | 9.6 | 0.00 | 0.20 | 0.00 | 92 | 1015.4 |
| 20260905183047 | 79 | 85 | 1.7 | 9.6 | 0.00 | 0.20 | 0.00 | 92 | 1015.1 |
| 20260905181509 | 79 | 86 | 1.7 | 8.7 | 0.00 | 0.20 | 0.00 | 92 | 1015.2 |
| 20260905180033 | 78 | 64 | 4.3 | 9.6 | 0.00 | 0.20 | 0.00 | 93 | 1015.2 |
| 20260905174606 | 77 | 95 | 3.5 | 8.7 | 0.00 | 0.20 | 0.00 | 94 | 1015.1 |
| 20260905173038 | 76 | 87 | 3.5 | 8.7 | 0.00 | 0.20 | 0.00 | 96 | 1015.3 |
| 20260905171635 | 76 | 56 | 3.5 | 7.8 | 0.00 | 0.20 | 0.00 | 96 | 1015.4 |